When you browse on this site, cookies collect data to enhance your experience and personalize the content and advertising you see.
Visit our Privacy Policy to learn more. By continuing to use the site, you agree to this use of cookies and data.

Hourly Weather Krasnaya Niva

Today, 8 July, Wednesday

Time Temperature Precipitation Wind Pressure Humidity
00:00 +21°C° 0 mm 2 mps 736 mmHg 88%
01:00 +21°C° 0 mm 2 mps 736 mmHg 87%
02:00 +20°C° 0 mm 2 mps 736 mmHg 90%
03:00 +21°C° 0.1 mm 2 mps 736 mmHg 88%
04:00 +21°C° 0.1 mm 2 mps 736 mmHg 87%
05:00 +22°C° 0.1 mm 1 mps 735 mmHg 86%
06:00 +23°C° 0 mm 1 mps 736 mmHg 84%
07:00 +24°C° 0 mm 1 mps 736 mmHg 81%
08:00 +25°C° 0 mm 1 mps 736 mmHg 78%
09:00 +25°C° 0 mm 2 mps 736 mmHg 78%
10:00 +26°C° 0 mm 2 mps 736 mmHg 78%
11:00 +27°C° 0 mm 3 mps 737 mmHg 78%
12:00 +26°C° 0.2 mm 3 mps 737 mmHg 80%
13:00 +25°C° 0.2 mm 3 mps 737 mmHg 83%
14:00 +25°C° 0.2 mm 4 mps 737 mmHg 85%
15:00 +23°C° 2.7 mm 4 mps 738 mmHg 88%
16:00 +22°C° 2.7 mm 4 mps 738 mmHg 90%
17:00 +21°C° 2.7 mm 5 mps 738 mmHg 93%
18:00 +21°C° 1.1 mm 4 mps 738 mmHg 94%
19:00 +20°C° 1.1 mm 4 mps 739 mmHg 96%
20:00 +19°C° 1.1 mm 3 mps 739 mmHg 97%
21:00 +18°C° 0.3 mm 4 mps 739 mmHg 97%
22:00 +17°C° 0.3 mm 4 mps 739 mmHg 97%
23:00 +15°C° 0.3 mm 5 mps 740 mmHg 96%

Tomorrow, 9 July, Thursday

Time Temperature Precipitation Wind Pressure Humidity
00:00 +15°C° 0.2 mm 5 mps 740 mmHg 96%
01:00 +14°C° 0.2 mm 5 mps 740 mmHg 96%
02:00 +13°C° 0.2 mm 5 mps 740 mmHg 95%
03:00 +13°C° 0 mm 5 mps 740 mmHg 95%
04:00 +13°C° 0 mm 5 mps 740 mmHg 94%
05:00 +13°C° 0 mm 5 mps 740 mmHg 94%
06:00 +13°C° 0 mm 5 mps 741 mmHg 91%
07:00 +14°C° 0 mm 5 mps 741 mmHg 88%
08:00 +15°C° 0 mm 5 mps 741 mmHg 85%
09:00 +16°C° 0 mm 5 mps 742 mmHg 80%
10:00 +19°C° 0 mm 5 mps 742 mmHg 75%
11:00 +20°C° 0 mm 5 mps 742 mmHg 70%
12:00 +20°C° 0 mm 5 mps 743 mmHg 69%
13:00 +21°C° 0 mm 5 mps 743 mmHg 68%
14:00 +21°C° 0 mm 4 mps 743 mmHg 67%
15:00 +21°C° 0.2 mm 4 mps 743 mmHg 70%
16:00 +20°C° 0.2 mm 4 mps 743 mmHg 73%
17:00 +20°C° 0.2 mm 4 mps 743 mmHg 76%
18:00 +18°C° 0.1 mm 3 mps 744 mmHg 80%
19:00 +17°C° 0.1 mm 3 mps 744 mmHg 85%
20:00 +15°C° 0.1 mm 2 mps 744 mmHg 89%
21:00 +14°C° 0 mm 3 mps 745 mmHg 90%
22:00 +13°C° 0 mm 3 mps 745 mmHg 90%
23:00 +12°C° 0 mm 3 mps 746 mmHg 91%

Day after tomorrow, 10 July, Friday

Time Temperature Precipitation Wind Pressure Humidity
00:00 +12°C° 0 mm 3 mps 746 mmHg 91%
01:00 +11°C° 0 mm 3 mps 746 mmHg 91%
02:00 +11°C° 0 mm 3 mps 746 mmHg 91%
03:00 +11°C° 0 mm 3 mps 747 mmHg 90%
04:00 +11°C° 0 mm 3 mps 747 mmHg 90%
05:00 +12°C° 0 mm 3 mps 747 mmHg 89%
06:00 +14°C° 0 mm 2 mps 748 mmHg 84%
07:00 +16°C° 0 mm 2 mps 748 mmHg 79%
08:00 +17°C° 0 mm 2 mps 748 mmHg 74%
09:00 +18°C° 0 mm 2 mps 748 mmHg 70%
10:00 +19°C° 0 mm 2 mps 749 mmHg 66%
11:00 +20°C° 0 mm 2 mps 749 mmHg 62%
12:00 +21°C° 0 mm 2 mps 749 mmHg 61%
13:00 +21°C° 0 mm 2 mps 749 mmHg 60%
14:00 +23°C° 0 mm 2 mps 749 mmHg 59%
15:00 +23°C° 0 mm 2 mps 749 mmHg 62%
16:00 +23°C° 0 mm 2 mps 749 mmHg 65%
17:00 +21°C° 0 mm 2 mps 749 mmHg 68%
18:00 +20°C° 0 mm 2 mps 749 mmHg 72%
19:00 +18°C° 0 mm 2 mps 749 mmHg 77%
20:00 +17°C° 0 mm 2 mps 749 mmHg 81%
21:00 +16°C° 0 mm 2 mps 749 mmHg 82%
22:00 +16°C° 0 mm 2 mps 749 mmHg 82%
23:00 +15°C° 0 mm 2 mps 749 mmHg 83%

11 July, Saturday

Time Temperature Precipitation Wind Pressure Humidity
00:00 +15°C° 0 mm 2 mps 749 mmHg 84%
01:00 +15°C° 0 mm 2 mps 749 mmHg 86%
02:00 +14°C° 0 mm 2 mps 749 mmHg 87%
03:00 +15°C° 0 mm 2 mps 749 mmHg 88%
04:00 +15°C° 0 mm 2 mps 750 mmHg 88%
05:00 +16°C° 0 mm 3 mps 750 mmHg 88%
06:00 +17°C° 0 mm 3 mps 750 mmHg 84%
07:00 +19°C° 0 mm 3 mps 750 mmHg 80%
08:00 +20°C° 0 mm 4 mps 750 mmHg 76%
09:00 +21°C° 0 mm 4 mps 750 mmHg 73%
10:00 +22°C° 0 mm 4 mps 750 mmHg 71%
11:00 +25°C° 0 mm 5 mps 749 mmHg 68%
12:00 +25°C° 0 mm 5 mps 749 mmHg 68%
13:00 +25°C° 0 mm 5 mps 749 mmHg 68%
14:00 +26°C° 0 mm 5 mps 749 mmHg 67%
15:00 +25°C° 0 mm 4 mps 749 mmHg 70%
16:00 +25°C° 0 mm 4 mps 748 mmHg 73%
17:00 +25°C° 0 mm 3 mps 748 mmHg 76%
18:00 +24°C° 0 mm 3 mps 748 mmHg 80%
19:00 +21°C° 0 mm 3 mps 748 mmHg 84%
20:00 +20°C° 0 mm 3 mps 748 mmHg 88%
21:00 +19°C° 0 mm 3 mps 748 mmHg 88%
22:00 +19°C° 0 mm 3 mps 748 mmHg 88%
23:00 +18°C° 0 mm 3 mps 748 mmHg 88%

12 July, Sunday

Time Temperature Precipitation Wind Pressure Humidity
00:00 +17°C° 0 mm 2 mps 748 mmHg 89%
01:00 +17°C° 0 mm 2 mps 748 mmHg 89%
02:00 +17°C° 0 mm 2 mps 748 mmHg 90%
03:00 +17°C° 0 mm 2 mps 748 mmHg 89%
04:00 +17°C° 0 mm 2 mps 747 mmHg 88%
05:00 +17°C° 0 mm 2 mps 747 mmHg 87%
06:00 +19°C° 0 mm 3 mps 747 mmHg 83%
07:00 +21°C° 0 mm 3 mps 747 mmHg 79%
08:00 +22°C° 0 mm 3 mps 747 mmHg 75%
09:00 +24°C° 0 mm 3 mps 747 mmHg 71%
10:00 +25°C° 0 mm 3 mps 747 mmHg 68%
11:00 +26°C° 0 mm 3 mps 747 mmHg 64%
12:00 +26°C° 0 mm 3 mps 746 mmHg 64%
13:00 +26°C° 0 mm 4 mps 746 mmHg 64%
14:00 +27°C° 0 mm 4 mps 745 mmHg 64%
15:00 +26°C° 0 mm 3 mps 745 mmHg 67%
16:00 +26°C° 0 mm 3 mps 745 mmHg 69%
17:00 +26°C° 0 mm 3 mps 744 mmHg 72%
18:00 +24°C° 0 mm 2 mps 744 mmHg 76%
19:00 +21°C° 0 mm 2 mps 744 mmHg 79%
20:00 +20°C° 0 mm 2 mps 744 mmHg 83%
21:00 +19°C° 0 mm 2 mps 743 mmHg 84%
22:00 +19°C° 0 mm 2 mps 743 mmHg 85%
23:00 +18°C° 0 mm 2 mps 743 mmHg 87%

13 July, Monday

Time Temperature Precipitation Wind Pressure Humidity
00:00 +18°C° 0 mm 2 mps 742 mmHg 87%
01:00 +18°C° 0 mm 1 mps 742 mmHg 88%
02:00 +18°C° 0 mm 1 mps 742 mmHg 89%
03:00 +18°C° 0 mm 1 mps 741 mmHg 88%
04:00 +19°C° 0 mm 1 mps 741 mmHg 88%
05:00 +19°C° 0 mm 1 mps 741 mmHg 87%
06:00 +20°C° 0 mm 1 mps 741 mmHg 84%
07:00 +22°C° 0 mm 1 mps 741 mmHg 80%
08:00 +21°C° 0 mm 0 mps 741 mmHg 76%
09:00 +24°C° 0.2 mm 1 mps 741 mmHg 72%
10:00 +25°C° 0.2 mm 2 mps 741 mmHg 68%
11:00 +26°C° 0.2 mm 2 mps 741 mmHg 64%
12:00 +23°C° 0.6 mm 4 mps 741 mmHg 70%
13:00 +22°C° 0.6 mm 5 mps 741 mmHg 76%
14:00 +21°C° 0.6 mm 6 mps 741 mmHg 82%
15:00 +21°C° 0.2 mm 6 mps 740 mmHg 83%
16:00 +20°C° 0.2 mm 5 mps 740 mmHg 84%
17:00 +20°C° 0.2 mm 5 mps 740 mmHg 85%
18:00 +17°C° 0 mm 5 mps 740 mmHg 87%
19:00 +17°C° 0 mm 4 mps 740 mmHg 89%
20:00 +15°C° 0 mm 4 mps 740 mmHg 91%
21:00 +14°C° 0 mm 4 mps 740 mmHg 91%
22:00 +14°C° 0 mm 4 mps 740 mmHg 92%
23:00 +13°C° 0 mm 4 mps 740 mmHg 92%
Show more